Mount Carmel, IL

4:52 AM CST on December 09, 2019 (GMT -0600)
Mount Carmel Municipal

Weather History for KAJG - October, 2019

Change the Weather History Date:

Wednesday, October 9, 2019

  Actual Average (KLWV) Record (KLWV)
Temperature  
Mean Temperature 58 °F -  
Max Temperature 77 °F 69 °F 88 °F (2010)
Min Temperature 40 °F 45 °F 30 °F (2000)
Degree Days  
Heating Degree Days 6    
Growing Degree Days 8 (Base 50)    
Moisture  
Dew Point 48 °F    
Average Humidity 74    
Maximum Humidity 97    
Minimum Humidity 32    
Precipitation  
Precipitation 0.00 in - - ()
Sea Level Pressure  
Sea Level Pressure 30.10 in    
Wind  
Wind Speed 5 mph (ESE)    
Max Wind Speed 13 mph    
Max Gust Speed -    
Visibility 10 miles    
Events      
Averages and records for this station are not official NWS values.
T = Trace of Precipitation, MM = Missing Value Source: NWS Daily Summary

Daily Weather History Graph

Daily Weather History Graph

Search for Another Location

Airport or City:

Astronomy

Oct. 09, 2019 Rise Set
Actual Time 6:54 AM CDT 6:21 PM CDT
Civil Twilight 6:27 AM CDT 6:48 PM CDT
Nautical Twilight 5:56 AM CDT 7:19 PM CDT
Astronomical Twilight 5:25 AM CDT 7:49 PM CDT
Moon 4:50 PM CDT 2:44 AM CDT
Length of Visible Light 12h 20m
Length of Day
11h 27m
Waxing Gibbous, 85% of the Moon is Illuminated
Oct 9
Waxing Gibbous
Oct 13
Full
Oct 21
Last Quarter
Oct 27
New
Nov 4
First Quarter

Hourly Weather History & Observations

Time (CDT) Temp. Dew Point Humidity Pressure Visibility Wind Dir Wind Speed Gust Speed Precip Events Conditions
12:15 AM 46.0 °F 43.7 °F 92% 30.12 in 7.0 mi North - - N/A   Clear
12:35 AM 45.5 °F 42.8 °F 90% 30.12 in 5.0 mi North - - N/A   Clear
12:55 AM 45.7 °F 43.0 °F 90% 30.12 in 3.0 mi North - - N/A   Clear
1:15 AM 44.2 °F 41.5 °F 90% 30.12 in 10.0 mi North - - N/A   Clear
1:35 AM 44.8 °F 42.8 °F 93% 30.11 in 10.0 mi North - - N/A   Clear
1:55 AM 44.6 °F 41.9 °F 90% 30.11 in 10.0 mi Calm Calm - N/A   Clear
2:15 AM 43.2 °F 41.4 °F 93% 30.11 in 10.0 mi North - - N/A   Clear
2:35 AM 41.5 °F 40.3 °F 95% 30.11 in 10.0 mi North - - N/A   Clear
2:55 AM 42.4 °F 41.2 °F 95% 30.11 in 10.0 mi North - - N/A   Clear
3:15 AM 42.8 °F 41.9 °F 97% 30.11 in 10.0 mi North - - N/A   Clear
3:35 AM 42.8 °F 41.5 °F 95% 30.11 in 10.0 mi North - - N/A   Clear
3:55 AM 42.8 °F 41.9 °F 97% 30.12 in 10.0 mi North - - N/A   Clear
4:15 AM 41.9 °F 40.8 °F 96% 30.12 in 10.0 mi North - - N/A   Clear
4:35 AM 42.3 °F 41.4 °F 97% 30.12 in 10.0 mi North - - N/A   Clear
4:55 AM 41.4 °F 40.3 °F 96% 30.12 in 10.0 mi Calm Calm - N/A   Clear
5:15 AM 40.6 °F 38.5 °F 92% 30.13 in 10.0 mi North - - N/A   Clear
5:35 AM 41.2 °F 40.1 °F 96% 30.13 in 7.0 mi North - - N/A   Clear
5:55 AM 41.0 °F 40.1 °F 97% 30.14 in 10.0 mi North - - N/A   Clear
6:15 AM 41.4 °F 40.3 °F 96% 30.14 in 10.0 mi North - - N/A   Clear
6:35 AM 40.8 °F 39.9 °F 97% 30.14 in 10.0 mi North - - N/A   Clear
6:55 AM 41.0 °F 39.6 °F 95% 30.14 in 10.0 mi North - - N/A   Clear
7:15 AM 41.0 °F 39.4 °F 94% 30.15 in 7.0 mi North - - N/A   Clear
7:35 AM 41.0 °F 39.9 °F 96% 30.15 in 5.0 mi North - - N/A   Clear
7:55 AM 44.2 °F 43.5 °F 97% 30.16 in 10.0 mi North - - N/A   Clear
8:15 AM 48.7 °F 46.6 °F 92% 30.16 in 10.0 mi North - - N/A   Clear
8:35 AM 52.0 °F 47.5 °F 85% 30.16 in 10.0 mi North - - N/A   Clear
8:55 AM 55.0 °F 48.4 °F 78% 30.16 in 10.0 mi North - - N/A   Clear
9:15 AM 57.4 °F 49.3 °F 74% 30.17 in 10.0 mi North - - N/A   Clear
9:35 AM 59.9 °F 50.9 °F 72% 30.17 in 10.0 mi North - - N/A   Clear
9:55 AM 62.1 °F 52.2 °F 70% 30.16 in 10.0 mi North - - N/A   Clear
10:15 AM 63.9 °F 52.9 °F 67% 30.16 in 10.0 mi ESE 4.6 mph - N/A   Clear
10:55 AM 68.2 °F 53.8 °F 60% 30.15 in 10.0 mi East 6.9 mph - N/A   Clear
11:15 AM 68.9 °F 53.6 °F 58% 30.15 in 10.0 mi North - - N/A   Clear
11:35 AM 70.2 °F 52.7 °F 54% 30.15 in 10.0 mi North - - N/A   Clear
11:55 AM 70.9 °F 52.2 °F 51% 30.15 in 10.0 mi North - - N/A   Clear
12:15 PM 72.0 °F 52.0 °F 49% 30.13 in 10.0 mi ESE 5.8 mph - N/A   Clear
12:35 PM 72.0 °F 51.1 °F 48% 30.12 in 10.0 mi East 9.2 mph - N/A   Clear
12:55 PM 73.4 °F 50.9 °F 45% 30.11 in 10.0 mi North - - N/A   Clear
1:15 PM 74.3 °F 50.5 °F 43% 30.10 in 10.0 mi ESE 8.1 mph - N/A   Clear
1:35 PM 75.6 °F 50.4 °F 41% 30.09 in 10.0 mi SE 9.2 mph - N/A   Clear
1:55 PM 75.6 °F 50.0 °F 41% 30.09 in 10.0 mi South 5.8 mph - N/A   Clear
2:15 PM 75.6 °F 50.0 °F 41% 30.07 in 10.0 mi SE 6.9 mph - N/A   Clear
2:35 PM 76.3 °F 49.6 °F 39% 30.07 in 10.0 mi North - - N/A   Clear
2:55 PM 76.6 °F 50.2 °F 39% 30.05 in 10.0 mi SE 6.9 mph - N/A   Clear
3:15 PM 77.0 °F 49.6 °F 38% 30.04 in 10.0 mi SE 8.1 mph - N/A   Clear
3:35 PM 77.0 °F 48.9 °F 37% 30.04 in 10.0 mi SSE 10.4 mph - N/A   Clear
3:55 PM 76.6 °F 47.3 °F 35% 30.04 in 10.0 mi ESE 12.7 mph - N/A   Clear
4:15 PM 76.6 °F 45.0 °F 32% 30.04 in 10.0 mi SE 8.1 mph - N/A   Clear
4:35 PM 76.6 °F 47.5 °F 36% 30.04 in 10.0 mi North - - N/A   Clear
5:15 PM 76.1 °F 48.7 °F 38% 30.04 in 10.0 mi SE 4.6 mph - N/A   Clear
5:35 PM 74.8 °F 49.3 °F 40% 30.04 in 10.0 mi North - - N/A   Clear
5:55 PM 71.4 °F 49.3 °F 45% 30.05 in 10.0 mi North - - N/A   Clear
6:15 PM 69.1 °F 50.0 °F 51% 30.05 in 10.0 mi North - - N/A   Clear
6:35 PM 64.9 °F 50.2 °F 59% 30.05 in 10.0 mi SE 6.9 mph - N/A   Clear
6:55 PM 62.2 °F 50.0 °F 64% 30.06 in 10.0 mi SE 5.8 mph - N/A   Clear
7:15 PM 59.9 °F 51.1 °F 73% 30.06 in 10.0 mi North - - N/A   Clear
7:35 PM 59.9 °F 50.5 °F 71% 30.07 in 10.0 mi North - - N/A   Clear
7:55 PM 57.7 °F 50.0 °F 75% 30.07 in 10.0 mi North - - N/A   Clear
8:15 PM 58.3 °F 51.1 °F 77% 30.08 in 10.0 mi ESE 6.9 mph - N/A   Clear
8:35 PM 58.1 °F 51.8 °F 80% 30.08 in 10.0 mi East 5.8 mph - N/A   Clear
8:55 PM 60.4 °F 54.7 °F 81% 30.08 in 10.0 mi ESE 8.1 mph - N/A   Clear
9:15 PM 59.9 °F 54.5 °F 82% 30.08 in 10.0 mi ESE 8.1 mph - N/A   Clear
9:35 PM 58.8 °F 54.5 °F 86% 30.08 in 10.0 mi ESE 8.1 mph - N/A   Clear
9:55 PM 57.4 °F 54.0 °F 88% 30.08 in 10.0 mi ESE 6.9 mph - N/A   Clear
10:15 PM 56.3 °F 53.4 °F 90% 30.09 in 10.0 mi North - - N/A   Clear
10:35 PM 55.0 °F 52.9 °F 92% 30.08 in 10.0 mi North - - N/A   Clear
10:55 PM 54.3 °F 52.7 °F 94% 30.07 in 10.0 mi East 9.2 mph - N/A   Clear
11:15 PM 53.8 °F 51.8 °F 93% 30.08 in 10.0 mi North - - N/A   Clear
11:35 PM 54.1 °F 52.3 °F 94% 30.08 in 10.0 mi North - - N/A   Clear
11:55 PM 54.7 °F 53.1 °F 94% 30.07 in 10.0 mi ESE 5.8 mph - N/A   Clear